Weather History for Baker, MT

Change the Weather History Date:

Tuesday, November 6, 2012

  Actual Average Record
Temperature  
Mean Temperature 40 °F -  
Max Temperature 51 °F 40 °F 73 °F (2010)
Min Temperature 30 °F 10 °F 3 °F (2003)
Degree Days  
Heating Degree Days 24    
Moisture  
Dew Point 26 °F    
Average Humidity 63    
Maximum Humidity 82    
Minimum Humidity 33    
Precipitation  
Precipitation 0.00 in - - ()
Sea Level Pressure  
Sea Level Pressure 30.17 in    
Wind  
Wind Speed 8 mph (West)    
Max Wind Speed 16 mph    
Max Gust Speed 22 mph    
Averages and records for this station are not official NWS values.
T = Trace of Precipitation, MM = Missing Value Source: NWS Daily Summary

Daily Weather History Graph

Daily Weather History Graph

Search for Another Location

Airport:

Trip Planner

Search our weather history database for the weather conditions in past years. The results will help you decide how hot, cold, wet, or windy it might be!

Date:

Astronomy

Nov. 06, 2012 Rise Set
Actual Time 6:46 AM MST 4:34 PM MST
Civil Twilight 6:14 AM MST 5:06 PM MST
Nautical Twilight 5:38 AM MST 5:42 PM MST
Astronomical Twilight 5:03 AM MST 6:17 PM MST
Moon 11:20 PM MST (11/6) 12:36 PM MST (11/6)
Length of Visible Light 10h 51m
Length of Day
9h 48m
Waning Gibbous, 52% of the Moon is Illuminated
Nov 6
Waning Gibbous
Nov 6
Last Quarter
Nov 13
New
Nov 20
First Quarter
Nov 28
Full

Hourly Weather History & Observations

Time (MST) Temp. Windchill Dew Point Humidity Pressure Visibility Wind Dir Wind Speed Gust Speed Precip Events Conditions
12:51 AM 34.0 °F 29.8 °F 28.9 °F 82% 30.15 in - NW 4.6 mph - N/A   Overcast
1:51 AM 35.1 °F 28.6 °F 28.9 °F 78% 30.17 in - West 8.1 mph - N/A   Overcast
2:51 AM 34.0 °F 27.2 °F 28.9 °F 82% 30.18 in - West 8.1 mph - N/A   Overcast
5:51 AM 30.0 °F 21.7 °F 25.0 °F 82% 30.21 in - West 9.2 mph - N/A   Clear
7:51 AM 33.1 °F 25.5 °F 25.0 °F 72% 30.26 in - West 9.2 mph - N/A   Clear
8:51 AM 37.9 °F 32.7 °F 27.0 °F 65% 30.26 in - West 6.9 mph - N/A   Clear
9:51 AM 43.0 °F 36.4 °F 27.0 °F 53% 30.25 in - WNW 12.7 mph - N/A   Clear
10:51 AM 46.9 °F - 26.1 °F 44% 30.23 in - WNW 16.1 mph 21.9 mph N/A   Clear
11:51 AM 50.0 °F - 25.0 °F 38% 30.20 in - WNW 16.1 mph - N/A   Clear
12:51 PM 51.1 °F - 23.0 °F 33% 30.19 in - WNW 16.1 mph - N/A   Clear
1:51 PM 51.1 °F - 23.0 °F 33% 30.16 in - NW 10.4 mph - N/A   Clear
3:51 PM 48.9 °F - 23.0 °F 36% 30.18 in - WNW 6.9 mph - N/A   Clear
4:51 PM 42.1 °F - 25.0 °F 51% 30.18 in - Calm Calm - N/A   Clear
5:51 PM 36.0 °F 31.1 °F 25.0 °F 64% 30.18 in - SSW 5.8 mph - N/A   Clear
6:51 PM 34.0 °F 31.0 °F 25.0 °F 70% 30.17 in - SSE 3.5 mph - N/A   Partly Cloudy
7:51 PM 34.0 °F 29.8 °F 26.1 °F 73% 30.14 in - East 4.6 mph - N/A   Partly Cloudy
8:51 PM 32.0 °F 27.5 °F 25.0 °F 75% 30.12 in - SE 4.6 mph - N/A   Clear
9:51 PM 30.9 °F 26.2 °F 25.0 °F 79% 30.11 in - ESE 4.6 mph - N/A   Clear
10:51 PM 30.0 °F 24.1 °F 24.1 °F 79% 30.07 in - SE 5.8 mph - N/A   Clear
11:51 PM 34.0 °F 25.0 °F 26.1 °F 73% 30.05 in - SE 12.7 mph - N/A   Clear